Regional Weather Roundup
Issued by NWS

Home | Current Version | Previous Version | Text Only | Print | Product List | Glossary Off
Versions: 1 2 3 4 5 6 7 8 9 10 11 12 13 14 15 16 17 18 19 20 21 22 23 24 25 26 27 28 29 30 31 32 33 34 35 36 37 38 39 40 41 42 43 44 45 46 47 48 49 50

000
ASUS43 KDTX 301601
RWRMI
MICHIGAN HOURLY REGIONAL WEATHER ROUNDUP
NATIONAL WEATHER SERVICE DETROIT/PONTIAC MI
1200 PM EDT SAT JUL 30 2016

NOTE: "FAIR" INDICATES FEW OR NO CLOUDS BELOW 12,000 FEET WITH NO
SIGNIFICANT WEATHER AND/OR OBSTRUCTION TO VISIBILITY.

MIZ047>049-052>055-059>063-066>070-074>076-081>083-301700-
SOUTHEAST LOWER MICHIGAN

CITY           SKY/WX    TMP DP  RH WIND       PRES   REMARKS
ADRIAN         CLOUDY    70  67  90 N9        30.00R
ALMA           CLOUDY    71  66  86 NE10      30.05R
ANN ARBOR      CLOUDY    67  66  97 N10       29.99S
BAD AXE        CLOUDY    70  64  82 NE7       30.06S
CARO           PTSUNNY   69  65  86 E6        30.03S
DETROIT CITY   CLOUDY    71  65  81 NE6       30.00R
DETROIT        LGT RAIN  73  65  75 N12       30.00R
FLINT          CLOUDY    70  64  81 E8        30.02S
GROSSE ILE     PTSUNNY   76  67  74 NE12      29.97R
HILLSDALE      CLOUDY    68  64  84 NE5       30.00R
HOWELL         RAIN      65  65  97 NE5       30.01S

CITY           SKY/WX    TMP DP  RH WIND       PRES   REMARKS
JACKSON        CLOUDY    68  68 100 NE6       30.01R
LAMBERTVILLE   CLOUDY    77  70  79 N8        29.97S
LANSING        PTSUNNY   68  63  84 NE8       30.02S
LAPEER         CLOUDY    69  62  78 E8        30.03S
MASON          LGT RAIN  65  63  94 E5        30.01R
MONROE         PTSUNNY   77  71  82 NE6       29.96S
MT. CLEMENS    CLOUDY    74  65  73 NE7       29.98S
PONTIAC        LGT RAIN  67  64  90 NE7       30.01S FOG
PORT HOPE        N/A     69  61  75 E10       30.05S
PORT HURON     CLOUDY    73  64  73 NE6       30.01S
TRI CITIES     CLOUDY    69  64  84 E9        30.05R
MIDLAND        CLOUDY    69  62  78 E5        30.05R
TROY           CLOUDY    72  63  72 NE7       30.02S
SAGINAW HB     CLOUDY    68  64  88 E9        30.03S
$$
MIZ043>046-050>051-056>058-064>065-071>073-077>080-301700-
SOUTHWEST LOWER MICHIGAN

CITY           SKY/WX    TMP DP  RH WIND       PRES   REMARKS
BATTLE CREEK   RAIN      64  64 100 N7        30.02R FOG
BENTON HARBOR  CLOUDY    74  65  73 E8        29.99R
BIG RAPIDS     CLOUDY    72  64  75 E12       30.04S
COLDWATER      CLOUDY    69  66  89 NE7       29.99F
FREMONT        PTSUNNY   71  64  77 SE6       30.03S
HOLLAND        CLOUDY    68  63  84 E7        30.02S
GRAND RAPIDS   LGT RAIN  67  63  87 NE6       30.03S
IONIA          CLOUDY    66  63  88 NE7       30.02S
KALAMAZOO      RAIN      66  64  93 N6        30.00F FOG
LUDINGTON      SUNNY     75  59  58 E8        30.03S
MARSHALL       LGT RAIN  66  65  98 NE3       29.99F
MOUNT PLEASANT CLOUDY    70  62  77 NE7       30.04S
MUSKEGON       CLOUDY    74  62  66 NE10      30.02S
SOUTH HAVEN    CLOUDY    69  66  91 E10       30.00R
$$
MIZ016>042-301700-
NORTHERN LOWER MICHIGAN

CITY           SKY/WX    TMP DP  RH WIND       PRES   REMARKS
ALPENA         SUNNY     75  50  41 NE15G21   30.11R
BEAVER ISLAND  SUNNY     75  55  49 E9        30.10S
BELLAIRE       SUNNY     77  49  36 E9G17     30.08S
CADILLAC       SUNNY     73  57  57 E10       30.06S
CHARLEVOIX     MOSUNNY   76  53  44 E10       30.12S
FRANKFORT      SUNNY     76  53  45 NE6       30.06S
GAYLORD        MOSUNNY   74  50  42 NE12G21   30.10S
GRAYLING       MOSUNNY   78  53  41 NE12G24   30.09S
HARBOR SPRINGS SUNNY     75  53  46 NE13G21   30.09S
HOUGHTON LAKE  MOSUNNY   74  57  55 E15       30.08R
MANISTEE       SUNNY     75  58  55 E9        30.04S
OSCODA         PTSUNNY   74  60  62 NE16      30.08S
PELLSTON       MOSUNNY   75  52  44 E13G22    30.10S
ROGERS CITY    SUNNY     72  56  58 E13       30.12S
TRAVERSE CITY  MOSUNNY   78  51  38 NE12G21   30.05S
$$
MIZ007>008-015-301700-
EASTERN UPPER MICHIGAN

CITY           SKY/WX    TMP DP  RH WIND       PRES   REMARKS
KINROSS        MOSUNNY   75  54  47 VRB3      30.11F
MACKINAC ISLAN SUNNY     71  58  64 E12G17    30.11S
S. S. MARIE    SUNNY     76  56  49 VRB3      30.10F
$$
MIZ004>006-011>014-085-301700-
CENTRAL UPPER MICHIGAN

CITY           SKY/WX    TMP DP  RH WIND       PRES   REMARKS
MANISTIQUE     PTSUNNY   77  57  51 SE7       30.09S
ESCANABA       SUNNY     75  55  50 SE9       30.09S
MENOMINEE      SUNNY    N/A N/A N/A E10       30.09S
SAWYER-GWINN   SUNNY     73  52  46 S5        30.12S
$$
MIZ001>003-009>011-084-301700-
WESTERN UPPER MICHIGAN

CITY           SKY/WX    TMP DP  RH WIND       PRES   REMARKS
IRON MOUNTAIN  MOSUNNY   74  51  44 SE8       30.09F
HOUGHTON       PTSUNNY   72  56  57 VRB5      30.09S
COPPER HARBOR    N/A     73  56  54 VRB5      30.09S
IRONWOOD       CLOUDY    73  55  53 SW5       30.06S
$$

ABBREVIATIONS USED IN REMARKS
   TC - TEMPERATURE IN CELSIUS
  WCI - WIND CHILL INDEX
   HX - HEAT INDEX
  VSB - VISIBILITY





USA.gov is the U.S. government's official web portal to all federal, state and local government web resources and services.